Regional Weather Roundup
Issued by NWS

Home | Current Version | Previous Version | Graphics & Text | Print | Product List | Glossary On
Versions: 1 2 3 4 5 6 7 8 9 10 11 12 13 14 15 16 17 18 19 20 21 22 23 24 25 26 27 28 29 30 31 32 33 34 35 36 37 38 39 40 41 42 43 44 45 46 47 48 49 50
306
ASUS43 KLMK 081402
RWRKY
KENTUCKY REGIONAL WEATHER ROUNDUP
NATIONAL WEATHER SERVICE LOUISVILLE KY
900 AM EST MON FEB 08 2016

NOTE "FAIR" INDICATES FEW OR NO CLOUDS BELOW 12,000 FEET
WITH NO SIGNIFICANT WEATHER AND/OR OBSTRUCTIONS TO VISIBILITY.

KYZ001>023-026-027-061>063-070>075-081500-
WESTERN AND SOUTH CENTRAL KENTUCKY

CITY           SKY/WX    TMP DP  RH WIND       PRES   REMARKS
PADUCAH        CLOUDY    39  26  59 W12       29.80F WCI  32
HENDERSON      CLOUDY    36  30  80 W9        29.76F WCI  29
OWENSBORO      PTSUNNY   34  34 100 W9        29.76S WCI  27
HOPKINSVILLE   CLOUDY    39  27  62 W13       29.78S WCI  31
BOWLING GREEN  CLOUDY    39  33  79 W10       29.76R WCI  32
GLASGOW        NOT AVBL
$$

KYZ024-025-028>034-038-045-046-053-081500-
NORTH CENTRAL KENTUCKY

CITY           SKY/WX    TMP DP  RH WIND       PRES   REMARKS
LOUISVILLE/SDF LGT SNOW  33  32  96 SW6       29.71S VSB 3/4 WCI  28
LOUISVILLE/LOU LGT SNOW  34  31  88 SW8       29.72R VSB 3/4 WCI  27
FORT KNOX      LGT SNOW  32  32 100 W8        29.70F VSB 1   WCI  25
$$

KYZ035>037-039>044-047>052-055>060-089>105-081500-
NORTHEAST KENTUCKY

CITY           SKY/WX    TMP DP  RH WIND       PRES   REMARKS
LEXINGTON      CLOUDY    34  32  92 SW8       29.69S WCI  27
COVINGTON      NOT AVBL
FRANKFORT      PTSUNNY  N/A N/A N/A SW3       29.68F
$$

KYZ054-064>069-076>088-106>120-081500-
SOUTHEAST KENTUCKY

CITY           SKY/WX    TMP DP  RH WIND       PRES   REMARKS
JACKSON        LGT SNOW  35  33  92 VRB5      29.69S FOG     WCI  31
LONDON         PTSUNNY   36  34  92 SW5       29.72S WCI  32
SOMERSET       NOT AVBL
MIDDLESBORO    NOT AVBL
MONTICELLO     MOSUNNY   37  36  96 NE7       29.74F WCI  32
$$





USA.gov is the U.S. government's official web portal to all federal, state and local government web resources and services.